Home   Weather   Santa Rosa   Past weeks

Flag for USA Past Weather in Santa Rosa, California, USA — Yesterday and Last 2 Weeks

54 °F

Passing clouds.

Feels Like: 53 °F
Forecast: 54 / 62 °F
Wind: 5 mph from Northeast

Location: Santa Rosa Sonoma County Airport

Current Time: Oct 23, 2016 at 10:21:18 PM

Latest Report: Oct 23, 2016 at 9:53 PM

Visibility: 10 mi

Pressure: 29.89 "Hg

Humidity: 86%

Dew Point: 50 °F

Location of Santa RosaLocation

Past Weather in Santa Rosa — Graph


Santa Rosa Temperature Yesterday

Maximum temperature yesterday: 70 °F (at 4:53 PM)
Minimum temperature yesterday: 47 °F (at 4:53 AM)
Average temperature yesterday: 56 °F

High & Low Weather Summary for the Past Weeks

High87 °F (Oct 9, 2:53 PM)100% (Oct 10, 3:53 AM)30.20 "Hg (Oct 10, 3:53 AM)
Low40 °F (Oct 23, 7:00 AM)17% (Oct 19, 2:53 PM)29.68 "Hg (Oct 16, 4:53 PM)
Average59 °F79%29.95 "Hg
* Reported Oct 8 8:53 PM — Oct 23 8:53 PM, Santa Rosa, Weather by CustomWeather, © 2016

Note: Actual official high and low records may vary slightly from our data, if they occured in-between our weather recording intervals... More about our weather records


Santa Rosa Weather History for the Previous 24 Hours

Scroll right to see more
Time TempWeatherWind HumidityBarometerVisibility
8:53 PM
Sun, Oct 23
53 °FPassing clouds.No wind89%29.89 "Hg10 mi
7:53 PM54 °FPassing clouds.3 mph86%29.88 "Hg10 mi
6:53 PM56 °FOvercast.6 mph84%29.86 "Hg10 mi
5:53 PM60 °FSunny.7 mph67%29.84 "Hg10 mi
4:53 PM66 °FSunny.8 mph52%29.84 "Hg10 mi
3:53 PM69 °FScattered clouds.7 mph44%29.84 "Hg10 mi
2:53 PM68 °FScattered clouds.6 mph42%29.85 "Hg10 mi
1:53 PM66 °FScattered clouds.6 mph45%29.87 "Hg10 mi
12:53 PM65 °FSunny.6 mph47%29.90 "Hg10 mi
11:53 AM61 °FScattered clouds.3 mph58%29.92 "Hg10 mi
10:53 AM56 °FScattered clouds.3 mph75%29.93 "Hg10 mi
9:53 AM51 °FScattered clouds.No wind86%29.92 "Hg10 mi
8:53 AM46 °FSunny.3 mph96%29.92 "Hg10 mi
7:53 AM41 °FScattered clouds.No wind96%29.89 "Hg10 mi
7:00 AM40 °FPassing clouds.No wind100%29.91 "Hg5 mi
6:00 AM43 °FFog.No wind100%29.89 "Hg1 mi
4:58 AM43 °FFog.No wind97%29.88 "Hg2 mi
4:03 AM43 °FPassing clouds.3 mph100%29.88 "Hg7 mi
3:53 AM44 °FClear.3 mph96%29.86 "Hg10 mi
2:53 AM46 °FClear.No wind100%29.87 "Hg10 mi
1:53 AM45 °FClear.3 mph100%29.86 "Hg8 mi
12:53 AM46 °FClear.3 mph100%29.86 "Hg8 mi
11:53 PM
Sat, Oct 22
48 °FClear.3 mph93%29.86 "Hg10 mi
10:53 PM49 °FClear.No wind90%29.86 "Hg10 mi
Weather by CustomWeather, © 2016

See weather overviewHow to use our weather pages